Regional Weather Roundup
Issued by NWS

Home | Current Version | Previous Version | Graphics & Text | Print | Product List | Glossary On
Versions: 1 2 3 4 5 6 7 8 9 10 11 12 13 14 15 16 17 18 19 20 21 22 23 24 25 26 27 28 29 30 31 32 33 34 35 36 37 38 39 40 41 42 43 44 45 46 47 48 49 50
000
ASUS43 KLMK 131902
RWRKY
KENTUCKY REGIONAL WEATHER ROUNDUP
NATIONAL WEATHER SERVICE LOUISVILLE KY
300 PM EDT SUN JUL 13 2014

NOTE "FAIR" INDICATES FEW OR NO CLOUDS BELOW 12,000 FEET
WITH NO SIGNIFICANT WEATHER AND/OR OBSTRUCTIONS TO VISIBILITY.

KYZ001>023-026-027-061>063-070>075-132000-
WESTERN AND SOUTH CENTRAL KENTUCKY

CITY           SKY/WX    TMP DP  RH WIND       PRES   REMARKS
PADUCAH        SUNNY     93  76  57 SW15G21   29.98F HX 105
HENDERSON      MOSUNNY   91  73  55 SW14      29.95F HX 100
OWENSBORO      MOSUNNY   93  72  50 SW16      29.96F HX 100
HOPKINSVILLE   MOSUNNY   93  72  49 SW12G18   30.01F HX 100
BOWLING GREEN  MOSUNNY   91  70  49 W12G17    30.01F HX  96
GLASGOW        NOT AVBL
$$

KYZ024-025-028>034-038-045-046-053-132000-
NORTH CENTRAL KENTUCKY

CITY           SKY/WX    TMP DP  RH WIND       PRES   REMARKS
LOUISVILLE/SDF LGT RAIN  95  70  44 SW16G23   29.95F HX 101
LOUISVILLE/LOU PTSUNNY   93  69  45 W18       29.95F HX  98
FORT KNOX      MOSUNNY   91  74  58 SW9G18    29.97F HX 101
$$

KYZ035>037-039>044-047>052-055>060-089>105-132000-
NORTHEAST KENTUCKY

CITY           SKY/WX    TMP DP  RH WIND       PRES   REMARKS
LEXINGTON      PTSUNNY   93  70  46 SW13      30.00F HX  99
COVINGTON      TSTM      76  71  85 N16G25    29.96S VSB 1
FRANKFORT      MOSUNNY   92  70  48 SW14G24   29.97F HX  97
$$

KYZ054-064>069-076>088-106>120-132000-
SOUTHEAST KENTUCKY

CITY           SKY/WX    TMP DP  RH WIND       PRES   REMARKS
JACKSON        MOSUNNY   92  65  40 VRB5      30.05F HX  94
LONDON         MOSUNNY   91  63  39 W14       30.06F HX  92
SOMERSET       SUNNY     91  61  35 W13       30.05F HX  91
MIDDLESBORO    PTSUNNY   82  70  67 W6        30.10S
MONTICELLO     CLEAR     93  70  47 SW8       30.06F HX  98
$$



USA.gov is the U.S. government's official web portal to all federal, state and local government web resources and services.